Location: Prague
(50.0830°N, 14.4670°E)
Time: 08:39:17
(UTC+01:00)

XW-2F - Pass Details

Date: 29 November 2021
Orbit: 494 x 515 km, 97.5° (Epoch: 18 January)

Event Time Altitude Azimuth Distance (km) Brightness Sun altitude
Rises 17:03:55 0° 159° (SSE) 2,594 ? -9.3°
Reaches altitude 10° 17:05:59 10° 157° (SSE) 1,719 ? -9.6°
Maximum altitude 17:09:40 69° 74° (ENE) 551 ? -10.2°
Drops below altitude 10° 17:13:24 10° 351° (N) 1,748 ? -10.7°
Sets 17:15:32 0° 349° (N) 2,643 ? -11.0°
